Regional Weather Roundup
Issued by NWS Nashville, TN

Home | Current Version | Previous Version | Text Only | Print | Product List | Glossary On
Versions: 1 2 3 4 5 6 7 8 9 10 11 12 13 14 15 16 17 18 19 20 21 22 23 24 25 26 27 28 29 30 31 32 33 34 35 36 37 38 39 40 41 42 43 44 45 46 47 48 49 50
000
ASUS44 KOHX 300915
RWROHX
MIDDLE TENNESSEE HOURLY WEATHER ROUNDUP
NATIONAL WEATHER SERVICE NASHVILLE TN
400 AM CDT MON MAR 30 2015

NOTE: "FAIR" INDICATES FEW OR NO CLOUDS BELOW 12,000 FEET WITH
NO SIGNIFICANT WEATHER AND/OR OBSTRUCTIONS TO VISIBILITY.

* THESE REPORTS ARE NOT UNDER NWS QUALITY CONTROL AND MAY NOT
  REPORT WEATHER SUCH AS PRECIPITATION AND FOG.


TNZ005>011-023>034-057-059-062>066-078-080-301000
...NORTHERN MIDDLE TENNESSEE...

CITY           SKY/WX    TMP DP  RH WIND       PRES   REMARKS
CLARKSVILLE    CLEAR     50  45  83 NW7       30.06R
CROSSVILLE     LGT RAIN  46  43  89 W6        30.06F FOG
GALLATIN       MOCLDY    48  47  97 CALM      30.06F
LIVINGSTON     CLOUDY    47  44  89 SW10      30.05F
NASHVILLE      CLOUDY    50  47  89 CALM      30.06S
PORTLAND       CLOUDY    46  43  87 SW5       30.04S
SMYRNA         CLOUDY    48  46  93 CALM      30.08R FOG
SPARTA         CLOUDY    46  46 100 SE5       30.05F
$$
TNZ056-058-060-061-075>077-079-093>097-301000
...SOUTHERN MIDDLE TENNESSEE...

CITY           SKY/WX    TMP DP  RH WIND       PRES   REMARKS
COLUMBIA       PTCLDY   N/A N/A N/A CALM      30.05R
LEWISBURG      CLOUDY    49  48  96 CALM      30.07S
MCMINNVILLE    CLOUDY    48  48 100 CALM      30.07R
MURFREESBORO   CLOUDY    49  48  96 SE3       30.06F
SHELBYVILLE    CLOUDY    50  48  93 CALM      30.08F
TULLAHOMA      CLOUDY    48  46  93 NW6       30.08R
WINCHESTER     CLOUDY    50  48  93 NW3       30.06F
$$


...KEY TO REMARKS...
VSB - VISIBILITY IN MILES
WCI - WIND CHILL INDEX
HX  - HEAT INDEX



USA.gov is the U.S. government's official web portal to all federal, state and local government web resources and services.